CW4778 Weather Reports


Display with metric or nautical units.
time (UTC)temp
F
wind
direction
speed
MPH
gust
MPH
rain 1hr
in
rain 24hr
in
rain mn
in
humidity
%
barometer
mb
20260509033804 63 266 6.0 12.0 0.00 0.29 0.13 92 1005.6
20260509032804 63 266 7.0 13.0 0.00 0.29 0.13 92 1005.9
20260509032306 63 266 7.0 13.0 0.00 0.29 0.13 92 1006.0
20260509031805 63 266 10.0 14.0 0.00 0.29 0.13 91 1005.9
20260509031305 63 266 9.0 18.0 0.00 0.29 0.13 90 1006.0
20260509030805 64 266 5.0 10.0 0.00 0.29 0.13 90 1005.9
20260509025805 64 268 6.0 10.0 0.00 0.29 0.13 90 1006.0
20260509025307 64 267 6.0 14.0 0.00 0.29 0.13 90 1005.8
20260509024805 64 263 7.0 9.0 0.00 0.29 0.13 92 1005.7
20260509023805 63 265 6.0 15.0 0.00 0.29 0.13 92 1005.7
20260509023305 63 264 5.0 13.0 0.00 0.29 0.13 92 1005.7
20260509021805 64 256 6.0 12.0 0.00 0.29 0.13 89 1005.7
20260509021305 64 251 10.0 13.0 0.00 0.29 0.13 89 1005.7
20260509020805 64 259 7.0 13.0 0.00 0.29 0.13 89 1005.8
20260509020305 65 259 7.0 12.0 0.00 0.29 0.13 90 1005.7
20260509015805 65 268 9.0 15.0 0.00 0.29 0.13 90 1005.7
20260509015306 64 267 8.0 14.0 0.00 0.29 0.13 91 1005.7
20260509013805 64 263 6.0 12.0 0.00 0.29 0.13 94 1005.7
20260509012805 63 253 7.0 10.0 0.00 0.29 0.13 94 1005.8
20260509011804 63 270 5.0 12.0 0.01 0.29 0.13 95 1006.0
20260509010305 62 259 6.0 10.0 0.01 0.29 0.13 96 1006.3
20260509005805 62 260 7.0 10.0 0.01 0.29 0.13 96 1006.5
20260509005306 61 252 7.0 12.0 0.01 0.29 0.13 96 1006.6
20260509004805 62 251 7.0 13.0 0.02 0.29 0.13 97 1006.7
20260509002805 62 254 15.0 24.0 0.02 0.29 0.13 94 1007.2
20260509000805 64 270 9.0 13.0 0.02 0.28 0.13 96 1007.3
20260509000305 64 264 4.0 12.0 0.02 0.28 0.13 96 1007.4
20260508234804 66 272 9.0 13.0 0.01 0.27 0.11 94 1007.7
20260508233305 66 280 7.0 10.0 0.01 0.27 0.11 93 1008.0
20260508231805 65 280 5.0 8.0 0.06 0.27 0.11 96 1008.1
20260508230805 64 274 4.0 8.0 0.06 0.27 0.11 98 1008.2
20260508230305 64 265 2.0 6.0 0.06 0.27 0.11 99 1008.2
20260508225306 61 260 1.0 3.0 0.05 0.26 0.10 99 1008.4
20260508224805 61 267 3.0 6.0 0.05 0.26 0.10 99 1008.4
20260508224305 60 249 3.0 6.0 0.05 0.26 0.10 98 1008.5
20260508223805 61 273 3.0 10.0 0.05 0.26 0.10 98 1008.5
20260508222805 61 260 3.0 6.0 0.03 0.24 0.09 98 1008.7
20260508221805 61 244 4.0 6.0 0.00 0.21 0.06 97 1008.6
20260508220804 62 266 3.0 13.0 0.00 0.21 0.06 95 1008.6
20260508220304 65 277 6.0 14.0 0.00 0.21 0.06 95 1008.6
20260508215306 66 286 6.0 12.0 0.00 0.21 0.06 96 1008.5
20260508214305 65 287 5.0 9.0 0.00 0.21 0.06 97 1008.5
20260508213805 65 283 6.0 8.0 0.00 0.21 0.06 97 1008.5
20260508213304 65 281 3.0 8.0 0.00 0.21 0.06 99 1008.6
20260508212306 64 287 5.0 6.0 0.00 0.21 0.06 100 1008.6
20260508211804 63 295 6.0 8.0 0.00 0.21 0.06 100 1008.5
20260508210804 63 279 2.0 6.0 0.00 0.21 0.06 100 1008.5
20260508205306 62 306 5.0 8.0 0.00 0.21 0.06 100 1008.6
20260508204805 62 306 5.0 8.0 0.00 0.21 0.06 100 1008.5
20260508202804 60 293 5.0 7.0 0.00 0.21 0.06 100 1008.4
20260508202307 59 286 3.0 6.0 0.00 0.21 0.06 100 1008.4
20260508200304 59 283 2.0 3.0 0.00 0.21 0.06 100 1008.3
20260508195805 58 284 1.0 2.0 0.00 0.21 0.06 100 1008.3
20260508195306 58 283 1.0 2.0 0.00 0.21 0.06 100 1008.3
20260508194304 57 284 0.0 1.0 0.00 0.21 0.06 100 1008.2
20260508193305 57 284 0.0 0.0 0.00 0.21 0.06 100 1008.1
20260508192804 58 284 0.0 2.0 0.00 0.21 0.06 100 1008.2
20260508192306 58 283 1.0 2.0 0.00 0.21 0.06 100 1008.2
20260508191804 58 283 1.0 2.0 0.00 0.21 0.06 100 1008.2
20260508191304 58 283 0.0 2.0 0.00 0.21 0.06 100 1008.1
20260508190805 58 284 1.0 3.0 0.00 0.21 0.06 100 1008.1
20260508185805 57 282 1.0 2.0 0.00 0.21 0.06 100 1007.9
20260508184304 58 282 1.0 2.0 0.00 0.21 0.06 100 1007.8
20260508183305 58 282 2.0 3.0 0.00 0.21 0.06 100 1007.9
20260508182804 59 277 2.0 3.0 0.00 0.21 0.06 100 1007.9
20260508182306 59 279 3.0 7.0 0.00 0.21 0.06 100 1007.9
20260508180804 57 307 2.0 3.0 0.00 0.21 0.06 100 1007.8
20260508180305 57 307 0.0 0.0 0.00 0.21 0.06 99 1007.7
20260508175804 57 307 0.0 1.0 0.00 0.21 0.06 99 1007.7
20260508175306 57 307 1.0 2.0 0.00 0.21 0.06 99 1007.7
20260508174805 57 307 2.0 3.0 0.00 0.21 0.06 99 1007.7
20260508174304 57 308 0.0 0.0 0.00 0.21 0.06 99 1007.7
20260508173305 57 307 0.0 2.0 0.00 0.21 0.06 99 1007.7
20260508172804 57 307 0.0 1.0 0.00 0.21 0.06 99 1007.7
20260508171804 58 308 0.0 2.0 0.00 0.21 0.06 99 1007.7
20260508170804 58 307 0.0 0.0 0.00 0.21 0.06 99 1007.7
20260508165306 58 306 2.0 3.0 0.00 0.21 0.06 99 1007.7
20260508164805 58 306 2.0 3.0 0.00 0.21 0.06 99 1007.7
20260508164304 58 307 2.0 3.0 0.00 0.21 0.06 99 1007.7
20260508163304 58 307 2.0 5.0 0.00 0.21 0.06 99 1007.7
20260508162805 58 308 2.0 5.0 0.00 0.21 0.06 99 1007.7
20260508161805 58 308 2.0 3.0 0.00 0.21 0.06 99 1007.8
20260508160805 58 304 2.0 6.0 0.00 0.21 0.06 99 1007.8
20260508160304 57 303 2.0 3.0 0.00 0.21 0.06 99 1007.8
20260508154304 57 308 1.0 3.0 0.00 0.21 0.06 99 1007.9
20260508153304 57 278 0.0 2.0 0.00 0.21 0.06 99 1008.1
20260508152804 57 278 0.0 1.0 0.00 0.21 0.06 99 1008.1
20260508152306 57 278 0.0 2.0 0.00 0.21 0.06 99 1008.1
20260508150804 58 278 2.0 5.0 0.00 0.21 0.06 99 1008.2
20260508150305 58 281 2.0 3.0 0.00 0.21 0.06 99 1008.2
20260508145804 58 282 2.0 5.0 0.00 0.21 0.06 99 1008.2
20260508145307 58 296 1.0 2.0 0.00 0.21 0.06 99 1008.3
20260508144305 58 296 1.0 5.0 0.00 0.21 0.06 99 1008.4
20260508143805 58 286 1.0 5.0 0.00 0.21 0.06 99 1008.3
20260508143304 58 285 2.0 3.0 0.00 0.21 0.06 99 1008.3
20260508141305 58 285 2.0 3.0 0.00 0.21 0.06 99 1008.5
20260508134805 58 284 1.0 2.0 0.01 0.21 0.06 99 1008.7
20260508133805 58 270 2.0 5.0 0.01 0.21 0.06 99 1008.8
20260508130805 59 295 2.0 5.0 0.06 0.21 0.06 98 1008.6
20260508125805 59 275 6.0 8.0 0.06 0.21 0.06 99 1008.6
20260508125306 59 279 5.0 8.0 0.05 0.20 0.05 99 1008.8
20260508124804 59 260 3.0 7.0 0.05 0.20 0.05 98 1008.8
20260508124304 59 259 3.0 7.0 0.05 0.20 0.05 98 1008.8
20260508123805 59 266 3.0 6.0 0.05 0.20 0.05 98 1008.9
20260508123305 59 265 6.0 8.0 0.05 0.20 0.05 98 1009.1
20260508122805 59 262 5.0 12.0 0.02 0.18 0.02 98 1009.3
20260508120844 59 266 9.0 14.0 0.08 0.16 0.00 98 1009.5
20260508114804 60 276 7.0 12.0 0.08 0.16 0.16 98 1009.6
20260508113305 61 309 10.0 15.0 0.08 0.16 0.16 97 1009.4
20260508110804 64 20 17.0 24.0 0.00 0.08 0.08 97 1008.5
20260508102805 64 18 13.0 18.0 0.02 0.08 0.08 97 1009.2
20260508102306 64 18 14.0 17.0 0.02 0.08 0.08 97 1009.3
20260508101804 64 18 12.0 18.0 0.02 0.08 0.08 97 1009.3
20260508101305 64 19 13.0 18.0 0.02 0.08 0.08 97 1009.3
20260508100805 64 20 10.0 15.0 0.03 0.08 0.08 97 1009.4
20260508100305 64 19 12.0 16.0 0.05 0.08 0.08 97 1009.4
20260508095804 64 19 11.0 17.0 0.05 0.08 0.08 97 1009.5
20260508095306 64 20 13.0 17.0 0.05 0.08 0.08 97 1009.7
20260508093304 64 18 15.0 23.0 0.04 0.07 0.07 97 1009.7
20260508092312 64 19 12.0 20.0 0.03 0.06 0.06 97 1010.1
20260508091307 64 20 10.0 18.0 0.02 0.06 0.06 96 1010.3
20260508085804 64 16 11.0 22.0 0.00 0.03 0.03 96 1010.3
20260508084804 64 18 12.0 20.0 0.01 0.03 0.03 96 1010.4
20260508084305 64 20 14.0 18.0 0.01 0.03 0.03 96 1010.3
20260508083804 64 21 16.0 22.0 0.01 0.03 0.03 96 1010.4
20260508082306 64 22 14.0 23.0 0.02 0.03 0.03 97 1010.6
20260508080805 64 20 14.0 22.0 0.02 0.03 0.03 97 1010.5
20260508080304 64 20 18.0 24.0 0.02 0.03 0.03 97 1010.5
20260508075804 64 20 14.0 21.0 0.02 0.03 0.03 97 1010.7
20260508072307 64 23 19.0 25.0 0.01 0.02 0.02 96 1011.2
20260508070804 64 25 17.0 21.0 0.01 0.02 0.02 96 1011.3
20260508070305 64 25 13.0 20.0 0.01 0.02 0.02 96 1011.3
20260508065805 64 27 18.0 25.0 0.02 0.02 0.02 96 1011.4
20260508063305 64 30 14.0 24.0 0.02 0.02 0.02 97 1010.9
20260508062805 64 33 14.0 22.0 0.01 0.01 0.01 96 1010.9
20260508061804 64 28 18.0 22.0 0.01 0.01 0.01 96 1011.2
20260508060805 64 27 16.0 20.0 0.01 0.01 0.01 96 1011.2
20260508060304 64 27 12.0 23.0 0.01 0.01 0.01 95 1011.3
20260508055306 64 27 11.0 21.0 0.00 0.00 0.00 95 1011.4
20260508054305 65 28 14.0 20.0 0.00 0.00 0.00 94 1011.5
20260508053804 65 28 11.0 16.0 0.00 0.00 0.00 94 1011.8
20260508052307 65 32 12.0 17.0 0.00 0.00 0.00 94 1012.2
20260508051305 65 28 13.0 21.0 0.00 0.00 0.00 93 1012.1
20260508050805 65 28 10.0 17.0 0.00 0.00 0.00 94 1012.4
20260508045805 65 28 13.0 21.0 0.00 0.00 0.00 93 1012.6
20260508044804 65 28 15.0 18.0 0.00 0.00 0.00 93 1012.8
20260508043305 65 29 15.0 22.0 0.00 0.00 0.00 93 1013.0
20260508042805 65 29 17.0 25.0 0.00 0.00 0.00 93 1012.9
20260508042307 65 29 17.0 29.0 0.00 0.00 0.00 93 1013.0
20260508040304 66 26 10.0 16.0 0.00 0.00 0.00 91 1013.4
20260508035306 66 26 13.0 21.0 0.00 0.00 0.00 91 1013.4
20260508034804 66 26 17.0 26.0 0.00 0.00 0.00 91 1013.4